START_TIME,STEP,MOV.,M15,t_acc.,M20,t_acc.
1979-07-06 21:00:44.550 ,0,0,0.,24.0,0.,24.0
1979-07-06 21:01:08.550 ,0,1,0.,24.0,0.,24.0
1979-07-06 21:01:32.550 ,0,0,1.,24.0,0.,24.0
1979-07-06 21:01:56.550 ,1,1,0.,24.0,0.,24.0
1979-07-06 21:02:20.550 ,1,0,0.,24.0,0.,24.0
1979-07-06 21:02:44.550 ,2,1,0.,24.0,0.,24.0
1979-07-06 21:03:08.550 ,2,0,1.,24.0,0.,24.0
1979-07-06 21:03:32.550 ,3,1,0.,24.0,0.,24.0
1979-07-06 21:03:56.550 ,3,0,0.,24.0,0.,24.0
1979-07-06 21:04:20.550 ,4,1,0.,24.0,0.,24.0
1979-07-06 21:04:44.550 ,4,0,0.,24.0,0.,24.0
1979-07-06 21:05:08.550 ,5,1,0.,24.0,0.,24.0
1979-07-06 21:05:32.550 ,5,0,0.,24.0,0.,24.0
1979-07-06 21:05:56.550 ,6,1,0.,24.0,0.,24.0
1979-07-06 21:06:20.550 ,6,0,0.,24.0,0.,24.0
1979-07-06 21:06:44.550 ,7,0,1.,24.0,0.,24.0
1979-07-06 21:07:08.550 ,7,0,0.,24.0,0.,24.0
1979-07-06 21:07:32.550 ,3,1,0.,24.0,0.,24.0
1979-07-06 21:07:56.550 ,0,1,0.,24.0,0.,24.0
1979-07-06 21:08:20.550 ,4,1,0.,24.0,0.,24.0
1979-07-06 21:08:44.550 ,7,1,0.,24.0,0.,24.0
1979-07-06 21:09:08.550 ,3,1,0.,24.0,0.,24.0
1979-07-06 21:09:32.550 ,0,1,0.,24.0,0.,24.0
1979-07-06 21:09:56.550 ,4,1,0.,24.0,0.,24.0
1979-07-06 21:10:20.550 ,7,1,0.,24.0,0.,24.0
1979-07-06 21:10:44.550 ,3,1,0.,24.0,0.,24.0
1979-07-06 21:11:08.550 ,0,1,0.,24.0,0.,24.0
1979-07-06 21:11:32.550 ,4,1,0.,24.0,0.,24.0
1979-07-06 21:11:56.550 ,7,1,0.,24.0,0.,24.0
1979-07-06 21:12:20.550 ,3,1,0.,24.0,0.,24.0
1979-07-06 21:12:44.550 ,0,1,0.,24.0,0.,24.0
1979-07-06 21:13:08.550 ,4,1,0.,24.0,0.,24.0
1979-07-06 21:13:32.550 ,7,1,0.,24.0,0.,24.0
1979-07-06 21:13:56.550 ,3,1,0.,24.0,0.,24.0
1979-07-06 21:14:20.550 ,0,1,0.,24.0,0.,24.0
1979-07-06 21:14:44.550 ,4,1,0.,24.0,0.,24.0
1979-07-06 21:15:08.550 ,7,1,1.,24.0,0.,24.0
1979-07-06 21:15:32.550 ,3,1,0.,24.0,0.,24.0
1979-07-06 21:15:56.550 ,0,1,0.,24.0,0.,24.0
1979-07-06 21:16:20.550 ,4,1,0.,24.0,0.,24.0
1979-07-06 21:16:44.550 ,7,1,1.,24.0,0.,24.0
1979-07-06 21:17:08.550 ,3,1,0.,24.0,0.,24.0
1979-07-06 21:17:32.550 ,0,1,0.,24.0,0.,24.0
1979-07-06 21:17:56.550 ,0,0,0.,24.0,0.,24.0
1979-07-06 21:18:20.550 ,0,0,1.,24.0,0.,24.0
1979-07-06 21:18:44.550 ,5,1,0.,24.0,0.,24.0
1979-07-06 21:19:08.550 ,5,0,0.,24.0,0.,24.0
1979-07-06 21:19:32.550 ,4,1,0.,24.0,0.,24.0
1979-07-06 21:19:56.550 ,4,0,0.,24.0,0.,24.0
1979-07-06 21:20:20.550 ,3,1,0.,24.0,0.,24.0
1979-07-06 21:20:44.550 ,3,0,0.,24.0,0.,24.0
1979-07-06 21:21:08.550 ,2,1,0.,24.0,0.,24.0
1979-07-06 21:21:32.550 ,2,0,1.,24.0,0.,24.0
1979-07-06 21:21:56.550 ,1,1,0.,24.0,0.,24.0
1979-07-06 21:22:20.550 ,1,0,1.,24.0,0.,24.0
1979-07-06 21:22:44.550 ,0,1,0.,24.0,0.,24.0
1979-07-06 21:23:08.550 ,0,0,0.,24.0,0.,24.0
1979-07-06 21:23:32.550 ,0,1,0.,24.0,0.,24.0
1979-07-06 21:23:56.550 ,0,0,0.,24.0,0.,24.0
1979-07-06 21:24:20.550 ,1,1,0.,24.0,0.,24.0
1979-07-06 21:24:44.550 ,1,0,0.,24.0,0.,24.0
1979-07-06 21:25:08.550 ,2,1,1.,24.0,0.,24.0
1979-07-06 21:25:32.550 ,2,0,0.,24.0,0.,24.0
1979-07-06 21:25:56.550 ,3,1,0.,24.0,0.,24.0
1979-07-06 21:26:20.550 ,3,0,0.,24.0,0.,24.0
1979-07-06 21:26:44.550 ,4,1,0.,24.0,0.,24.0
1979-07-06 21:27:08.550 ,4,0,1.,24.0,0.,24.0
1979-07-06 21:27:32.550 ,5,1,0.,24.0,0.,24.0
1979-07-06 21:27:56.550 ,5,0,0.,24.0,0.,24.0
1979-07-06 21:28:20.550 ,6,1,0.,24.0,0.,24.0
1979-07-06 21:28:44.550 ,6,0,0.,24.0,0.,24.0
1979-07-06 21:29:08.550 ,7,1,0.,24.0,0.,24.0
1979-07-06 21:29:32.550 ,7,0,1.,24.0,0.,24.0
1979-07-06 21:29:56.550 ,7,1,0.,24.0,0.,24.0
1979-07-06 21:30:20.550 ,7,0,0.,24.0,0.,24.0
1979-07-06 21:30:44.550 ,6,1,0.,24.0,0.,24.0
1979-07-06 21:31:08.550 ,6,0,2.,24.0,0.,24.0
1979-07-06 21:31:32.550 ,5,1,1.,24.0,0.,24.0
1979-07-06 21:31:56.550 ,5,0,0.,24.0,0.,24.0
1979-07-06 21:32:20.550 ,4,1,0.,24.0,0.,24.0
1979-07-06 21:32:44.550 ,4,0,0.,24.0,0.,24.0
1979-07-06 21:33:08.550 ,3,1,0.,24.0,0.,24.0
1979-07-06 21:33:32.550 ,3,0,0.,24.0,0.,24.0
1979-07-06 21:33:56.550 ,2,1,1.,24.0,0.,24.0
1979-07-06 21:34:20.550 ,2,0,0.,24.0,0.,24.0
1979-07-06 21:34:44.550 ,1,1,0.,24.0,0.,24.0
1979-07-06 21:35:08.550 ,1,0,0.,24.0,0.,24.0
1979-07-06 21:35:32.550 ,0,1,0.,24.0,0.,24.0
1979-07-06 21:35:56.550 ,0,0,0.,24.0,0.,24.0
1979-07-06 21:36:20.550 ,0,1,0.,24.0,0.,24.0
1979-07-06 21:36:44.550 ,0,0,0.,24.0,0.,24.0
1979-07-06 21:37:08.550 ,1,1,0.,24.0,0.,24.0
1979-07-06 21:37:32.550 ,1,0,0.,24.0,0.,24.0
1979-07-06 21:37:56.550 ,2,1,0.,24.0,0.,24.0
1979-07-06 21:38:20.550 ,2,0,0.,24.0,0.,24.0
1979-07-06 21:38:44.550 ,3,1,0.,24.0,0.,24.0
1979-07-06 21:39:08.550 ,3,0,0.,24.0,0.,24.0
1979-07-06 21:39:32.550 ,4,1,0.,24.0,0.,24.0
1979-07-06 21:39:56.550 ,4,0,1.,24.0,0.,24.0
1979-07-06 21:40:20.550 ,5,1,1.,24.0,0.,24.0
1979-07-06 21:40:44.550 ,5,0,0.,24.0,0.,24.0
1979-07-06 21:41:08.550 ,6,1,0.,24.0,0.,24.0
1979-07-06 21:41:32.550 ,6,0,0.,24.0,0.,24.0
1979-07-06 21:41:56.550 ,7,1,0.,24.0,0.,24.0
1979-07-06 21:42:20.550 ,7,0,0.,24.0,0.,24.0
1979-07-06 21:42:44.550 ,7,1,0.,24.0,0.,24.0
1979-07-06 21:43:08.550 ,7,0,0.,24.0,0.,24.0
1979-07-06 21:43:32.550 ,6,1,0.,24.0,0.,24.0
1979-07-06 21:43:56.550 ,6,0,0.,24.0,0.,24.0
1979-07-06 21:44:20.550 ,5,1,0.,24.0,0.,24.0
1979-07-06 21:44:44.550 ,5,0,0.,24.0,0.,24.0
1979-07-06 21:45:08.550 ,4,1,0.,24.0,0.,24.0
1979-07-06 21:45:32.550 ,4,0,0.,24.0,0.,24.0
1979-07-06 21:45:56.550 ,3,1,0.,24.0,0.,24.0
1979-07-06 21:46:20.550 ,3,0,0.,24.0,0.,24.0
1979-07-06 21:46:44.550 ,2,1,0.,24.0,0.,24.0
1979-07-06 21:47:08.550 ,2,0,0.,24.0,0.,24.0
1979-07-06 21:47:32.550 ,1,1,0.,24.0,0.,24.0
1979-07-06 21:47:56.550 ,1,0,0.,24.0,0.,24.0
1979-07-06 21:48:20.550 ,0,1,0.,24.0,0.,24.0
1979-07-06 21:48:44.550 ,0,0,0.,24.0,0.,24.0
1979-07-06 21:49:08.550 ,0,1,0.,24.0,0.,24.0
1979-07-06 21:49:32.550 ,0,0,0.,24.0,0.,24.0
1979-07-06 21:49:56.550 ,1,1,0.,24.0,0.,24.0
1979-07-06 21:50:20.550 ,1,0,0.,24.0,0.,24.0
1979-07-06 21:50:44.550 ,2,1,0.,24.0,0.,24.0
1979-07-06 21:51:08.550 ,2,0,0.,24.0,0.,24.0
1979-07-06 21:51:32.550 ,3,1,0.,24.0,0.,24.0
1979-07-06 21:51:56.550 ,3,0,0.,24.0,0.,24.0
1979-07-06 21:52:20.550 ,4,1,0.,24.0,0.,24.0
1979-07-06 21:52:44.550 ,4,0,0.,24.0,0.,24.0
1979-07-06 21:53:08.550 ,5,1,0.,24.0,0.,24.0
1979-07-06 21:53:32.550 ,5,0,0.,24.0,0.,24.0
1979-07-06 21:53:56.550 ,6,1,0.,24.0,0.,24.0
1979-07-06 21:54:20.550 ,6,0,0.,24.0,0.,24.0
1979-07-06 21:54:44.550 ,7,1,0.,24.0,0.,24.0
1979-07-06 21:55:08.550 ,7,0,0.,24.0,0.,24.0
1979-07-06 21:55:32.550 ,7,1,0.,24.0,0.,24.0
1979-07-06 21:55:56.550 ,7,0,0.,24.0,0.,24.0
1979-07-06 21:56:20.550 ,6,1,0.,24.0,0.,24.0
1979-07-06 21:56:44.550 ,6,0,0.,24.0,0.,24.0
1979-07-06 21:57:08.550 ,5,1,0.,24.0,0.,24.0
1979-07-06 21:57:32.550 ,5,0,0.,24.0,0.,24.0
1979-07-06 21:57:56.550 ,4,1,0.,24.0,0.,24.0
1979-07-06 21:58:20.550 ,4,0,1.,24.0,0.,24.0
1979-07-06 21:58:44.550 ,3,1,0.,24.0,0.,24.0
1979-07-06 21:59:08.550 ,3,0,1.,24.0,0.,24.0
1979-07-06 21:59:32.550 ,2,1,0.,24.0,0.,24.0
1979-07-06 21:59:56.550 ,2,0,0.,24.0,0.,24.0
1979-07-06 22:00:20.550 ,1,1,0.,24.0,0.,24.0
1979-07-06 22:00:44.550 ,1,0,0.,24.0,0.,24.0
1979-07-06 22:01:08.550 ,0,1,0.,24.0,0.,24.0
1979-07-06 22:01:32.550 ,0,0,1.,24.0,0.,24.0
1979-07-06 22:01:56.550 ,0,1,0.,24.0,0.,24.0
1979-07-06 22:02:20.550 ,0,0,0.,24.0,0.,24.0
1979-07-06 22:02:44.550 ,1,1,0.,24.0,0.,24.0
1979-07-06 22:03:08.550 ,1,0,0.,24.0,0.,24.0
1979-07-06 22:03:32.550 ,2,1,1.,24.0,0.,24.0
1979-07-06 22:03:56.550 ,2,0,1.,24.0,0.,24.0
1979-07-06 22:04:20.550 ,3,1,0.,24.0,0.,24.0
1979-07-06 22:04:44.550 ,3,0,0.,24.0,0.,24.0
1979-07-06 22:05:08.550 ,4,1,0.,24.0,0.,24.0
1979-07-06 22:05:32.550 ,4,0,0.,24.0,0.,24.0
1979-07-06 22:05:56.550 ,5,1,0.,24.0,0.,24.0
1979-07-06 22:06:20.550 ,5,0,0.,24.0,0.,24.0
1979-07-06 22:06:44.550 ,6,1,0.,24.0,0.,24.0
1979-07-06 22:07:08.550 ,6,0,1.,24.0,0.,24.0
1979-07-06 22:07:32.550 ,7,1,0.,24.0,0.,24.0
1979-07-06 22:07:56.550 ,7,0,0.,24.0,0.,24.0
1979-07-06 22:08:20.550 ,7,1,0.,24.0,0.,24.0
1979-07-06 22:08:44.550 ,7,0,0.,24.0,0.,24.0
1979-07-06 22:09:08.550 ,6,1,0.,24.0,0.,24.0
1979-07-06 22:09:32.550 ,0,0,0.,24.0,0.,24.0
1979-07-06 22:09:56.550 ,5,1,0.,24.0,0.,24.0
1979-07-06 22:10:20.550 ,5,0,0.,24.0,0.,24.0
1979-07-06 22:10:44.550 ,4,1,0.,24.0,0.,24.0
1979-07-06 22:11:08.550 ,4,0,0.,24.0,0.,24.0
1979-07-06 22:11:32.550 ,3,1,0.,24.0,0.,24.0
1979-07-06 22:11:56.550 ,3,0,0.,24.0,0.,24.0
1979-07-06 22:12:20.550 ,2,1,0.,24.0,0.,24.0
1979-07-06 22:12:44.550 ,2,0,1.,24.0,0.,24.0
1979-07-06 22:13:08.550 ,1,1,0.,24.0,0.,24.0
1979-07-06 22:13:32.550 ,1,0,0.,24.0,0.,24.0
1979-07-06 22:13:56.550 ,0,1,0.,24.0,0.,24.0
1979-07-06 22:14:20.550 ,0,0,0.,24.0,0.,24.0
1979-07-06 22:14:44.550 ,0,1,0.,24.0,0.,24.0
1979-07-06 22:15:08.550 ,0,0,0.,24.0,0.,24.0
1979-07-06 22:15:32.550 ,1,1,0.,24.0,0.,24.0
1979-07-06 22:15:56.550 ,1,0,1.,24.0,0.,24.0
1979-07-06 22:16:20.550 ,2,1,0.,24.0,0.,24.0
1979-07-06 22:16:44.550 ,2,0,1.,24.0,0.,24.0
1979-07-06 22:17:08.550 ,3,1,0.,24.0,0.,24.0
1979-07-06 22:17:32.550 ,3,0,0.,24.0,0.,24.0
1979-07-06 22:17:56.550 ,4,1,0.,24.0,0.,24.0
1979-07-06 22:18:20.550 ,4,0,1.,24.0,0.,24.0
1979-07-06 22:18:44.550 ,5,1,1.,24.0,0.,24.0
1979-07-06 22:19:08.550 ,5,0,1.,24.0,0.,24.0
1979-07-06 22:19:32.550 ,6,1,0.,24.0,0.,24.0
1979-07-06 22:19:56.550 ,6,0,0.,24.0,0.,24.0
1979-07-06 22:20:20.550 ,7,1,0.,24.0,0.,24.0
1979-07-06 22:20:44.550 ,7,0,0.,24.0,0.,24.0
1979-07-06 22:21:08.550 ,7,1,0.,24.0,0.,24.0
1979-07-06 22:21:32.550 ,7,0,0.,24.0,0.,24.0
1979-07-06 22:21:56.550 ,6,1,0.,24.0,0.,24.0
1979-07-06 22:22:20.550 ,6,0,0.,24.0,0.,24.0
1979-07-06 22:22:44.550 ,5,1,0.,24.0,0.,24.0
1979-07-06 22:23:08.550 ,5,0,0.,24.0,0.,24.0
1979-07-06 22:23:32.550 ,4,1,0.,24.0,0.,24.0
1979-07-06 22:23:56.550 ,4,0,0.,24.0,0.,24.0
1979-07-06 22:24:20.550 ,3,1,0.,24.0,0.,24.0
1979-07-06 22:24:44.550 ,3,0,0.,24.0,0.,24.0
1979-07-06 22:25:08.550 ,2,1,0.,24.0,0.,24.0
1979-07-06 22:25:32.550 ,2,0,0.,24.0,0.,24.0
1979-07-06 22:25:56.550 ,1,1,0.,24.0,0.,24.0
1979-07-06 22:26:20.550 ,1,0,0.,24.0,0.,24.0
1979-07-06 22:26:44.550 ,0,1,0.,24.0,0.,24.0
1979-07-06 22:27:08.550 ,0,0,0.,24.0,0.,24.0
1979-07-06 22:27:32.550 ,0,1,0.,24.0,0.,24.0
1979-07-06 22:27:56.550 ,0,0,0.,24.0,0.,24.0
1979-07-06 22:28:20.550 ,1,1,0.,24.0,0.,24.0
1979-07-06 22:28:44.550 ,1,0,0.,24.0,0.,24.0
1979-07-06 22:29:08.550 ,2,1,0.,24.0,0.,24.0
1979-07-06 22:29:32.550 ,2,0,0.,24.0,0.,24.0
1979-07-06 22:29:56.550 ,3,1,0.,24.0,0.,24.0
1979-07-06 22:30:20.550 ,3,0,0.,24.0,0.,24.0
1979-07-06 22:30:44.550 ,4,1,0.,24.0,0.,24.0
1979-07-06 22:31:08.550 ,4,0,1.,24.0,0.,24.0
1979-07-06 22:31:32.550 ,5,1,0.,24.0,0.,24.0
1979-07-06 22:31:56.550 ,5,0,0.,24.0,0.,24.0
1979-07-06 22:32:20.550 ,6,1,0.,24.0,0.,24.0
1979-07-06 22:32:44.550 ,6,0,1.,24.0,0.,24.0
1979-07-06 22:33:08.550 ,7,1,0.,24.0,0.,24.0
1979-07-06 22:33:32.550 ,7,0,0.,24.0,0.,24.0
1979-07-06 22:33:56.550 ,7,1,0.,24.0,0.,24.0
1979-07-06 22:34:20.550 ,7,0,0.,24.0,0.,24.0
1979-07-06 22:34:44.550 ,6,1,0.,24.0,0.,24.0
1979-07-06 22:35:08.550 ,6,0,0.,24.0,0.,24.0
1979-07-06 22:35:32.550 ,5,1,0.,24.0,0.,24.0
1979-07-06 22:35:56.550 ,5,0,0.,24.0,0.,24.0
1979-07-06 22:36:20.550 ,4,1,0.,24.0,0.,24.0
1979-07-06 22:36:44.550 ,4,0,0.,24.0,0.,24.0
1979-07-06 22:37:08.550 ,3,1,0.,24.0,0.,24.0
1979-07-06 22:37:32.550 ,3,0,0.,24.0,0.,24.0
1979-07-06 22:37:56.550 ,2,1,0.,24.0,0.,24.0
1979-07-06 22:38:20.550 ,2,0,0.,24.0,0.,24.0
1979-07-06 22:38:44.550 ,1,1,0.,24.0,0.,24.0
1979-07-06 22:39:08.550 ,1,0,0.,24.0,0.,24.0
1979-07-06 22:39:32.550 ,0,1,1.,24.0,0.,24.0
1979-07-06 22:39:56.550 ,0,0,0.,24.0,0.,24.0
1979-07-06 22:40:20.550 ,0,0,0.,24.0,0.,24.0
1979-07-06 22:40:44.550 ,0,0,0.,24.0,0.,24.0
1979-07-06 22:41:08.550 ,7,0,0.,24.0,0.,24.0
1979-07-06 22:41:32.550 ,7,0,0.,24.0,0.,24.0
1979-07-06 22:41:56.550 ,7,0,0.,24.0,0.,24.0
1979-07-06 22:42:20.550 ,7,0,0.,24.0,0.,24.0
1979-07-06 22:42:44.550 ,7,0,0.,24.0,0.,24.0
1979-07-06 22:43:08.550 ,7,0,0.,24.0,0.,24.0
1979-07-06 22:43:32.550 ,3,1,0.,24.0,0.,24.0
1979-07-06 22:43:56.550 ,0,1,0.,24.0,0.,24.0
1979-07-06 22:44:20.550 ,4,1,0.,24.0,0.,24.0
1979-07-06 22:44:44.550 ,7,1,0.,24.0,0.,24.0
1979-07-06 22:45:08.550 ,3,1,0.,24.0,0.,24.0
1979-07-06 22:45:32.550 ,0,1,0.,24.0,0.,24.0
1979-07-06 22:45:56.550 ,4,1,0.,24.0,0.,24.0
1979-07-06 22:46:20.550 ,7,1,0.,24.0,0.,24.0
1979-07-06 22:46:44.550 ,3,1,1.,24.0,0.,24.0
1979-07-06 22:47:08.550 ,0,1,0.,24.0,0.,24.0
1979-07-06 22:47:32.550 ,4,1,0.,24.0,0.,24.0
1979-07-06 22:47:56.550 ,7,1,0.,24.0,0.,24.0
1979-07-06 22:48:20.550 ,3,1,0.,24.0,0.,24.0
1979-07-06 22:48:44.550 ,0,1,0.,24.0,0.,24.0
1979-07-06 22:49:08.550 ,4,1,1.,24.0,0.,24.0
1979-07-06 22:49:32.550 ,7,1,0.,24.0,0.,24.0
1979-07-06 22:49:56.550 ,3,1,1.,24.0,0.,24.0
1979-07-06 22:50:20.550 ,0,1,0.,24.0,0.,24.0
1979-07-06 22:50:44.550 ,4,1,0.,24.0,0.,24.0
1979-07-06 22:51:08.550 ,7,1,0.,24.0,0.,24.0
1979-07-06 22:51:32.550 ,3,1,0.,24.0,0.,24.0
1979-07-06 22:51:56.550 ,0,1,0.,24.0,0.,24.0
1979-07-06 22:52:20.550 ,4,1,0.,24.0,0.,24.0
1979-07-06 22:52:44.550 ,7,1,0.,24.0,0.,24.0
1979-07-06 22:53:08.550 ,3,1,0.,24.0,0.,24.0
1979-07-06 22:53:32.550 ,0,1,0.,24.0,0.,24.0
1979-07-06 22:53:56.550 ,0,0,0.,24.0,0.,24.0
1979-07-06 22:54:20.550 ,0,0,0.,24.0,0.,24.0
1979-07-06 22:54:44.550 ,5,1,0.,24.0,0.,24.0
1979-07-06 22:55:08.550 ,5,0,0.,24.0,0.,24.0
1979-07-06 22:55:32.550 ,4,1,0.,24.0,0.,24.0
1979-07-06 22:55:56.550 ,4,0,0.,24.0,0.,24.0
1979-07-06 22:56:20.550 ,3,1,0.,24.0,0.,24.0
1979-07-06 22:56:44.550 ,3,0,0.,24.0,0.,24.0
1979-07-06 22:57:08.550 ,2,1,0.,24.0,0.,24.0
1979-07-06 22:57:32.550 ,2,0,0.,24.0,0.,24.0
1979-07-06 22:57:56.550 ,1,1,0.,24.0,0.,24.0
1979-07-06 22:58:20.550 ,1,0,0.,24.0,0.,24.0
1979-07-06 22:58:44.550 ,0,1,0.,24.0,0.,24.0
1979-07-06 22:59:08.550 ,0,0,0.,24.0,0.,24.0
1979-07-06 22:59:32.550 ,0,1,0.,24.0,0.,24.0
1979-07-06 22:59:56.550 ,0,0,0.,24.0,0.,24.0
1979-07-06 23:00:20.550 ,1,1,0.,24.0,0.,24.0
1979-07-06 23:00:44.550 ,1,0,0.,24.0,0.,24.0
1979-07-06 23:01:08.550 ,2,1,1.,24.0,0.,24.0
1979-07-06 23:01:32.550 ,2,0,1.,24.0,0.,24.0
1979-07-06 23:01:56.550 ,3,1,0.,24.0,0.,24.0
1979-07-06 23:02:20.550 ,3,0,0.,24.0,0.,24.0
1979-07-06 23:02:44.550 ,4,1,0.,24.0,0.,24.0
1979-07-06 23:03:08.550 ,4,0,0.,24.0,0.,24.0
1979-07-06 23:03:32.550 ,5,1,0.,24.0,0.,24.0
1979-07-06 23:03:56.550 ,5,0,0.,24.0,0.,24.0
1979-07-06 23:04:20.550 ,6,1,0.,24.0,0.,24.0
1979-07-06 23:04:44.550 ,6,0,0.,24.0,0.,24.0
1979-07-06 23:05:08.550 ,7,1,0.,24.0,0.,24.0
1979-07-06 23:05:32.550 ,7,0,1.,24.0,0.,24.0
1979-07-06 23:05:56.550 ,7,1,1.,24.0,0.,24.0
1979-07-06 23:06:20.550 ,7,0,0.,24.0,0.,24.0
1979-07-06 23:06:44.550 ,6,1,0.,24.0,0.,24.0
1979-07-06 23:07:08.550 ,6,0,0.,24.0,0.,24.0
1979-07-06 23:07:32.550 ,5,1,0.,24.0,0.,24.0
1979-07-06 23:07:56.550 ,5,0,0.,24.0,0.,24.0
1979-07-06 23:08:20.550 ,4,1,0.,24.0,0.,24.0
1979-07-06 23:08:44.550 ,4,0,1.,24.0,0.,24.0
1979-07-06 23:09:08.550 ,0,0,0.,24.0,0.,24.0
1979-07-06 23:09:32.550 ,0,0,0.,24.0,0.,24.0
1979-07-06 23:09:56.550 ,2,1,0.,24.0,0.,24.0
1979-07-06 23:10:20.550 ,2,0,0.,24.0,0.,24.0
1979-07-06 23:10:44.550 ,1,1,0.,24.0,0.,24.0
1979-07-06 23:11:08.550 ,1,0,0.,24.0,0.,24.0
1979-07-06 23:11:32.550 ,0,1,0.,24.0,0.,24.0
1979-07-06 23:11:56.550 ,0,0,1.,24.0,0.,24.0
1979-07-06 23:12:20.550 ,0,1,1.,24.0,0.,24.0
1979-07-06 23:12:44.550 ,0,0,0.,24.0,0.,24.0
1979-07-06 23:13:08.550 ,1,1,0.,24.0,0.,24.0
1979-07-06 23:13:32.550 ,1,0,0.,24.0,0.,24.0
1979-07-06 23:13:56.550 ,2,1,1.,24.0,0.,24.0
1979-07-06 23:14:20.550 ,2,0,0.,24.0,0.,24.0
1979-07-06 23:14:44.550 ,3,1,0.,24.0,0.,24.0
1979-07-06 23:15:08.550 ,3,0,0.,24.0,0.,24.0
1979-07-06 23:15:32.550 ,4,1,0.,24.0,0.,24.0
1979-07-06 23:15:56.550 ,4,0,0.,24.0,0.,24.0
1979-07-06 23:16:20.550 ,5,1,0.,24.0,0.,24.0
1979-07-06 23:16:44.550 ,5,0,1.,24.0,0.,24.0
1979-07-06 23:17:08.550 ,0,0,0.,24.0,0.,24.0
1979-07-06 23:17:32.550 ,0,0,0.,24.0,0.,24.0
1979-07-06 23:17:56.550 ,7,1,0.,24.0,0.,24.0
1979-07-06 23:18:20.550 ,7,0,0.,24.0,0.,24.0
1979-07-06 23:18:44.550 ,7,1,0.,24.0,0.,24.0
1979-07-06 23:19:08.550 ,7,0,0.,24.0,0.,24.0
1979-07-06 23:19:32.550 ,6,1,0.,24.0,0.,24.0
1979-07-06 23:19:56.550 ,6,0,0.,24.0,0.,24.0
1979-07-06 23:20:20.550 ,5,1,0.,24.0,0.,24.0
1979-07-06 23:20:44.550 ,5,0,0.,24.0,0.,24.0
1979-07-06 23:21:08.550 ,4,1,0.,24.0,0.,24.0
1979-07-06 23:21:32.550 ,4,0,0.,24.0,0.,24.0
1979-07-06 23:21:56.550 ,3,1,0.,24.0,0.,24.0
1979-07-06 23:22:20.550 ,3,0,0.,24.0,0.,24.0
1979-07-06 23:22:44.550 ,2,1,0.,24.0,0.,24.0
1979-07-06 23:23:08.550 ,2,0,0.,24.0,0.,24.0
1979-07-06 23:23:32.550 ,1,1,0.,24.0,0.,24.0
1979-07-06 23:23:56.550 ,1,0,0.,24.0,0.,24.0
1979-07-06 23:24:20.550 ,0,1,0.,24.0,0.,24.0
1979-07-06 23:24:44.550 ,0,0,0.,24.0,0.,24.0
1979-07-06 23:25:08.550 ,0,1,0.,24.0,0.,24.0
1979-07-06 23:25:32.550 ,0,0,0.,24.0,0.,24.0
1979-07-06 23:25:56.550 ,1,1,0.,24.0,0.,24.0
1979-07-06 23:26:20.550 ,1,0,0.,24.0,0.,24.0
1979-07-06 23:26:44.550 ,2,1,0.,24.0,0.,24.0
1979-07-06 23:27:08.550 ,2,0,0.,24.0,0.,24.0
1979-07-06 23:27:32.550 ,3,1,0.,24.0,0.,24.0
1979-07-06 23:27:56.550 ,3,0,0.,24.0,0.,24.0
1979-07-06 23:28:20.550 ,4,1,0.,24.0,0.,24.0
1979-07-06 23:28:44.550 ,4,0,0.,24.0,0.,24.0
1979-07-06 23:29:08.550 ,5,1,0.,24.0,0.,24.0
1979-07-06 23:29:32.550 ,5,0,1.,24.0,0.,24.0
1979-07-06 23:29:56.550 ,6,1,0.,24.0,0.,24.0
1979-07-06 23:30:20.550 ,6,0,0.,24.0,0.,24.0
1979-07-06 23:30:44.550 ,7,0,0.,24.0,0.,24.0
1979-07-06 23:31:08.550 ,7,0,0.,24.0,0.,24.0
1979-07-06 23:31:32.550 ,3,1,0.,24.0,0.,24.0
1979-07-06 23:31:56.550 ,0,1,0.,24.0,0.,24.0
1979-07-06 23:32:20.550 ,4,1,1.,24.0,0.,24.0
1979-07-06 23:32:44.550 ,7,1,1.,24.0,0.,24.0
1979-07-06 23:33:08.550 ,3,1,0.,24.0,0.,24.0
1979-07-06 23:33:32.550 ,0,1,0.,24.0,0.,24.0
1979-07-06 23:33:56.550 ,4,1,0.,24.0,0.,24.0
1979-07-06 23:34:20.550 ,7,1,0.,24.0,0.,24.0
1979-07-06 23:34:44.550 ,3,1,1.,24.0,0.,24.0
1979-07-06 23:35:08.550 ,0,1,0.,24.0,0.,24.0
1979-07-06 23:35:32.550 ,4,1,0.,24.0,0.,24.0
1979-07-06 23:35:56.550 ,7,1,0.,24.0,0.,24.0
1979-07-06 23:36:20.550 ,3,1,0.,24.0,0.,24.0
1979-07-06 23:36:44.550 ,0,1,0.,24.0,0.,24.0
1979-07-06 23:37:08.550 ,4,1,0.,24.0,0.,24.0
1979-07-06 23:37:32.550 ,7,1,0.,24.0,0.,24.0
1979-07-06 23:37:56.550 ,3,1,0.,24.0,0.,24.0
1979-07-06 23:38:20.550 ,0,1,0.,24.0,0.,24.0
1979-07-06 23:38:44.540 ,4,1,0.,24.0,0.,24.0
1979-07-06 23:39:08.540 ,7,1,0.,24.0,0.,24.0
1979-07-06 23:39:32.540 ,3,1,0.,24.0,0.,24.0
1979-07-06 23:39:56.540 ,0,1,0.,24.0,0.,24.0
1979-07-06 23:40:20.540 ,4,1,0.,24.0,0.,24.0
1979-07-06 23:40:44.540 ,7,1,0.,24.0,0.,24.0
1979-07-06 23:41:08.540 ,3,1,0.,24.0,0.,24.0
1979-07-06 23:41:32.540 ,0,1,0.,24.0,0.,24.0
1979-07-06 23:41:56.540 ,0,0,0.,24.0,0.,24.0
1979-07-06 23:42:20.540 ,0,0,0.,24.0,0.,24.0
1979-07-06 23:42:44.540 ,5,1,0.,24.0,0.,24.0
1979-07-06 23:43:08.540 ,5,0,0.,24.0,0.,24.0
1979-07-06 23:43:32.540 ,4,1,0.,24.0,0.,24.0
1979-07-06 23:43:56.540 ,4,0,0.,24.0,0.,24.0
1979-07-06 23:44:20.540 ,3,1,0.,24.0,0.,24.0
1979-07-06 23:44:44.540 ,3,0,0.,24.0,0.,24.0
1979-07-06 23:45:08.540 ,2,1,0.,24.0,0.,24.0
1979-07-06 23:45:32.540 ,2,0,1.,24.0,0.,24.0
1979-07-06 23:45:56.540 ,1,1,0.,24.0,0.,24.0
1979-07-06 23:46:20.540 ,1,0,0.,24.0,0.,24.0
1979-07-06 23:46:44.540 ,0,1,0.,24.0,0.,24.0
1979-07-06 23:47:08.540 ,0,0,0.,24.0,0.,24.0
1979-07-06 23:47:32.540 ,0,1,0.,24.0,0.,24.0
1979-07-06 23:47:56.540 ,0,0,1.,24.0,0.,24.0
1979-07-06 23:48:20.540 ,1,1,0.,24.0,0.,24.0
1979-07-06 23:48:44.540 ,1,0,0.,24.0,0.,24.0
1979-07-06 23:49:08.540 ,2,1,0.,24.0,0.,24.0
1979-07-06 23:49:32.540 ,2,0,1.,24.0,0.,24.0
1979-07-06 23:49:56.540 ,3,1,0.,24.0,0.,24.0
1979-07-06 23:50:20.540 ,3,0,0.,24.0,0.,24.0
1979-07-06 23:50:44.540 ,4,1,1.,24.0,0.,24.0
1979-07-06 23:51:08.540 ,4,0,0.,24.0,0.,24.0
1979-07-06 23:51:32.540 ,5,1,0.,24.0,0.,24.0
1979-07-06 23:51:56.540 ,5,0,0.,24.0,0.,24.0
1979-07-06 23:52:20.540 ,6,1,0.,24.0,0.,24.0
1979-07-06 23:52:44.540 ,6,0,0.,24.0,0.,24.0
1979-07-06 23:53:08.540 ,7,1,0.,24.0,0.,24.0
1979-07-06 23:53:32.540 ,7,0,0.,24.0,0.,24.0
1979-07-06 23:53:56.540 ,7,1,0.,24.0,0.,24.0
1979-07-06 23:54:20.540 ,7,0,0.,24.0,0.,24.0
1979-07-06 23:54:44.540 ,6,1,0.,24.0,0.,24.0
1979-07-06 23:55:08.540 ,6,0,0.,24.0,0.,24.0
1979-07-06 23:55:32.540 ,5,1,0.,24.0,0.,24.0
1979-07-06 23:55:56.540 ,5,0,0.,24.0,0.,24.0
1979-07-06 23:56:20.540 ,4,1,0.,24.0,0.,24.0
1979-07-06 23:56:44.540 ,4,0,0.,24.0,0.,24.0
1979-07-06 23:57:08.540 ,3,1,0.,24.0,0.,24.0
1979-07-06 23:57:32.540 ,3,0,0.,24.0,0.,24.0
1979-07-06 23:57:56.540 ,2,1,0.,24.0,0.,24.0
1979-07-06 23:58:20.540 ,2,0,0.,24.0,0.,24.0
1979-07-06 23:58:44.540 ,1,1,0.,24.0,0.,24.0
1979-07-06 23:59:08.540 ,1,0,1.,24.0,0.,24.0
1979-07-06 23:59:32.540 ,0,1,0.,24.0,0.,24.0
1979-07-06 23:59:56.540 ,0,0,0.,24.0,0.,24.0
1979-07-07 00:00:20.550 ,0,1,0.,24.0,0.,24.0
